Total_Precipitation_Accumulation
2.02 2.35 1.96 1.21 1.01 0.92 0.79 0.72 0.62 0.60 0.59 0.68 0.72 0.78 0.85 0.82 0.80 0.85 0.96 1.06 1.10 1.12 1.23 1.54 2.00 2.32 2.79 3.29 3.50 3.60 3.64 3.90 4.25 4.22 3.98 3.76 3.49 3.23 3.00 2.91 2.87 2.68 2.53 2.41
1.98 1.72 1.06 0.79 0.87 0.96 0.97 0.90 0.71 0.65 0.59 0.73 0.75 0.79 0.80 0.81 0.83 0.84 0.92 1.02 1.04 1.03 1.19 1.48 1.82 2.18 2.43 3.05 3.43 3.50 3.69 3.94 4.20 4.14 4.00 3.88 3.82 3.63 3.37 3.22 2.97 2.82 2.67 2.50
1.51 1.08 0.84 1.03 1.15 1.14 1.09 0.94 0.73 0.73 0.81 0.80 0.81 0.92 0.77 0.76 0.75 0.75 0.92 1.03 1.03 1.00 1.15 1.39 1.63 1.95 2.13 2.52 3.02 3.25 3.39 3.74 4.00 4.19 4.52 4.51 4.32 3.98 3.53 3.24 3.07 2.92 2.90 2.75
1.25 0.88 1.00 1.30 1.34 1.15 1.10 0.74 0.72 0.76 1.01 1.09 0.90 1.19 0.87 0.77 0.75 0.78 0.95 1.06 1.10 1.04 1.12 1.34 1.52 1.66 1.88 2.14 2.58 3.00 3.27 3.53 3.74 3.89 4.13 4.26 4.10 3.71 3.32 3.11 3.10 3.13 3.07 3.04
1.25 0.90 1.10 1.40 1.19 1.06 0.99 0.68 0.81 0.91 1.09 1.16 0.85 1.05 0.94 0.76 0.85 0.88 0.96 1.07 1.15 1.21 1.27 1.38 1.44 1.46 1.64 1.89 2.33 2.74 3.05 3.34 3.51 3.65 3.75 3.92 3.97 3.83 3.65 3.40 3.31 3.29 3.20 3.09
0.94 0.90 1.16 1.26 1.02 1.03 1.05 1.11 1.27 1.42 1.81 1.87 0.86 0.86 0.94 0.98 1.10 0.99 0.93 1.03 1.14 1.36 1.47 1.45 1.46 1.43 1.53 1.73 2.00 2.41 2.76 3.15 3.39 3.50 3.72 3.78 3.69 3.71 3.69 3.39 3.35 3.34 3.40 3.30
1.18 1.14 1.11 1.24 1.51 1.47 1.59 2.19 2.80 2.87 2.74 1.68 0.58 0.69 1.04 1.01 1.06 1.08 1.07 1.09 1.12 1.23 1.38 1.40 1.44 1.44 1.50 1.66 1.83 2.07 2.30 2.68 3.11 3.31 3.47 3.60 3.63 3.52 3.56 3.47 3.33 3.31 3.24 3.20
1.31 1.36 1.07 1.20 1.67 1.79 1.64 1.96 2.20 1.97 1.39 0.83 0.54 0.79 1.02 0.91 0.91 0.97 1.00 1.04 1.10 1.22 1.33 1.38 1.42 1.53 1.60 1.63 1.71 1.89 2.01 2.22 2.66 3.02 3.13 3.21 3.39 3.40 3.26 3.26 3.18 3.15 3.06 2.97
1.10 1.09 0.84 0.93 1.15 1.37 1.57 1.52 1.25 1.56 1.12 0.87 0.80 0.74 0.72 0.61 0.69 0.81 0.84 0.88 1.03 1.20 1.27 1.36 1.41 1.55 1.65 1.64 1.63 1.74 1.86 1.92 2.18 2.63 2.88 3.00 3.07 3.05 2.86 2.77 2.77 2.79 2.84 2.83
1.11 1.15 0.88 0.92 1.22 1.38 1.39 1.26 1.35 1.88 1.65 1.18 0.77 0.68 0.89 0.79 0.79 0.85 0.90 0.94 1.04 1.18 1.27 1.39 1.46 1.48 1.56 1.61 1.65 1.72 1.71 1.75 1.85 2.09 2.42 2.72 2.88 2.81 2.77 2.66 2.49 2.41 2.40 2.45
0.94 1.23 1.17 1.12 1.35 1.28 1.17 1.38 1.50 1.53 1.31 1.33 0.99 0.93 0.96 0.89 0.89 0.93 1.03 1.05 1.10 1.18 1.34 1.49 1.53 1.55 1.55 1.57 1.66 1.72 1.64 1.60 1.65 1.79 1.95 2.18 2.53 2.62 2.63 2.60 2.38 2.24 2.14 2.10
0.78 1.13 1.21 0.96 0.78 0.74 0.91 1.08 1.30 1.70 1.33 1.04 1.06 0.98 0.73 0.71 0.77 0.87 1.02 1.06 1.08 1.11 1.23 1.37 1.45 1.49 1.56 1.61 1.69 1.77 1.73 1.64 1.57 1.61 1.68 1.81 2.08 2.33 2.44 2.55 2.43 2.24 2.13 2.01
1.09 1.35 1.40 1.15 1.00 0.88 0.91 0.84 1.02 1.36 1.55 1.18 1.15 0.98 0.64 0.57 0.63 0.77 0.94 1.02 1.05 1.06 1.08 1.15 1.23 1.36 1.50 1.61 1.66 1.76 1.77 1.68 1.56 1.50 1.51 1.63 1.79 1.97 2.09 2.18 2.28 2.21 2.18 2.05
1.34 1.30 1.19 1.19 1.04 0.96 0.89 0.74 0.88 1.56 1.89 1.16 0.88 0.83 0.69 0.68 0.73 0.79 0.86 0.96 1.02 1.03 0.99 1.00 1.09 1.19 1.31 1.47 1.57 1.62 1.68 1.67 1.59 1.47 1.39 1.46 1.55 1.71 1.83 1.84 1.97 2.01 2.05 2.09
1.00 1.10 0.74 0.63 0.50 0.56 0.66 0.69 0.81 1.18 1.16 1.15 0.80 0.71 0.81 0.84 0.88 0.88 0.83 0.85 0.87 0.90 0.95 1.00 1.02 1.05 1.13 1.24 1.32 1.39 1.46 1.48 1.50 1.46 1.38 1.37 1.36 1.44 1.56 1.58 1.66 1.75 1.82 1.95
0.67 0.89 0.70 0.60 0.42 0.45 0.56 0.57 0.62 0.76 0.83 0.87 0.69 0.75 0.76 0.76 0.70 0.69 0.68 0.70 0.76 0.85 0.92 0.96 0.97 0.96 0.96 1.04 1.13 1.18 1.28 1.34 1.39 1.37 1.37 1.33 1.30 1.32 1.40 1.42 1.44 1.50 1.62 1.75
0.62 0.76 0.93 0.72 0.44 0.56 0.75 0.71 0.73 0.79 0.84 0.87 0.98 0.93 0.70 0.65 0.66 0.70 0.67 0.63 0.68 0.76 0.82 0.84 0.87 0.91 0.94 0.97 0.99 1.05 1.13 1.17 1.25 1.27 1.28 1.33 1.37 1.35 1.38 1.38 1.38 1.45 1.54 1.65
0.58 0.74 1.12 0.89 0.59 0.78 0.76 0.57 0.62 0.69 0.76 0.78 0.85 0.80 0.71 0.70 0.70 0.68 0.65 0.65 0.63 0.67 0.78 0.82 0.83 0.84 0.85 0.88 0.89 0.90 0.94 1.01 1.10 1.14 1.19 1.22 1.29 1.33 1.33 1.35 1.36 1.42 1.49 1.59
0.40 0.79 1.29 1.09 0.77 0.56 0.46 0.43 0.65 0.74 0.82 0.77 0.75 0.70 0.66 0.57 0.51 0.55 0.55 0.60 0.67 0.69 0.75 0.81 0.83 0.83 0.80 0.78 0.81 0.83 0.86 0.89 0.96 1.08 1.19 1.24 1.29 1.32 1.34 1.39 1.40 1.42 1.50 1.57
0.35 0.67 1.27 1.15 0.96 0.65 0.53 0.36 0.40 0.59 0.87 0.61 0.60 0.64 0.64 0.58 0.68 0.70 0.62 0.62 0.63 0.62 0.65 0.71 0.73 0.74 0.75 0.79 0.83 0.86 0.91 0.92 1.00 1.10 1.21 1.25 1.29 1.38 1.40 1.39 1.40 1.40 1.45 1.53
0.53 0.80 1.04 0.92 0.91 0.59 0.48 0.29 0.27 0.77 1.04 0.62 0.60 0.65 0.65 0.74 0.86 0.78 0.68 0.65 0.64 0.64 0.63 0.63 0.63 0.69 0.81 0.89 0.91 0.95 0.97 1.05 1.11 1.15 1.19 1.22 1.21 1.27 1.33 1.30 1.29 1.33 1.36 1.36
0.52 0.65 0.65 0.69 0.92 0.75 0.45 0.35 0.67 0.92 0.62 0.55 0.54 0.58 0.64 0.68 0.64 0.64 0.66 0.65 0.61 0.63 0.61 0.58 0.59 0.64 0.70 0.81 0.91 0.97 1.02 1.05 1.03 1.04 1.12 1.22 1.22 1.21 1.23 1.25 1.25 1.29 1.27 1.23
0.50 0.65 0.73 0.74 0.84 0.76 0.61 0.66 0.70 0.61 0.56 0.52 0.56 0.57 0.56 0.59 0.58 0.59 0.62 0.59 0.56 0.59 0.59 0.57 0.58 0.58 0.56 0.63 0.75 0.91 1.01 1.03 1.03 1.02 1.09 1.17 1.19 1.20 1.24 1.22 1.23 1.23 1.20 1.15
0.42 0.35 0.48 0.58 0.56 0.51 0.51 0.48 0.49 0.51 0.55 0.51 0.49 0.48 0.47 0.52 0.52 0.53 0.53 0.53 0.53 0.53 0.55 0.57 0.54 0.52 0.54 0.57 0.61 0.72 0.81 0.89 0.97 1.03 1.05 1.08 1.15 1.18 1.17 1.15 1.18 1.22 1.25 1.20
0.43 0.36 0.41 0.49 0.44 0.41 0.41 0.41 0.44 0.41 0.36 0.33 0.32 0.33 0.40 0.46 0.48 0.51 0.53 0.55 0.56 0.56 0.55 0.57 0.56 0.52 0.54 0.53 0.55 0.58 0.63 0.71 0.81 0.89 0.95 0.98 1.03 1.11 1.12 1.11 1.17 1.24 1.27 1.34
0.49 0.54 0.64 0.64 0.48 0.55 0.50 0.38 0.34 0.32 0.30 0.30 0.29 0.28 0.30 0.37 0.43 0.41 0.44 0.49 0.55 0.56 0.54 0.53 0.50 0.48 0.51 0.51 0.54 0.56 0.59 0.64 0.71 0.77 0.82 0.88 0.93 0.98 1.00 1.02 1.06 1.16 1.20 1.27